Blue Canyon, CA

12:40 AM PST on February 25, 2018 (GMT -0800)
Blue Canyon-Nyack

Weather History for KBLU - May, 2012

Change the Weather History Date:

Saturday, May 12, 2012

  Actual Average Record
Temperature  
Mean Temperature 66 °F -  
Max Temperature 73 °F 63 °F 82 °F (1976)
Min Temperature 59 °F 44 °F 28 °F (1951)
Cooling Degree Days 1    
Growing Degree Days 16 (Base 50)    
Moisture  
Dew Point 29 °F    
Average Humidity 25    
Maximum Humidity 36    
Minimum Humidity 16    
Precipitation  
Precipitation 0.00 in - - ()
Sea Level Pressure  
Sea Level Pressure 29.97 in    
Wind  
Wind Speed 4 mph (NNE)    
Max Wind Speed 9 mph    
Max Gust Speed 16 mph    
Visibility 10 miles    
Events      
Averages and records for this station are not official NWS values.
T = Trace of Precipitation, MM = Missing Value Source: NWS Daily Summary

Daily Weather History Graph

Daily Weather History Graph

Search for Another Location

Airport or City:

Trip Planner

Search our weather history database for the weather conditions in past years. The results will help you decide how hot, cold, wet, or windy it might be!

Date:

Astronomy

May. 12, 2012 Rise Set
Actual Time 5:51 AM PDT 8:07 PM PDT
Civil Twilight 5:21 AM PDT 8:37 PM PDT
Nautical Twilight 4:44 AM PDT 9:14 PM PDT
Astronomical Twilight 4:04 AM PDT 9:55 PM PDT
Moon 1:24 AM PDT (5/12) 12:35 PM PDT (5/12)
Length of Visible Light 15h 15m
Length of Day
14h 15m
Waning Gibbous, 51% of the Moon is Illuminated
May 12
Waning Gibbous
May 12
Last Quarter
May 20
New
May 28
First Quarter
Jun 4
Full

Hourly Weather History & Observations

Time (PDT) Temp. Dew Point Humidity Pressure Visibility Wind Dir Wind Speed Gust Speed Precip Events Conditions
12:52 AM 60.1 °F 30.9 °F 33% 29.94 in 10.0 mi NE 4.6 mph - N/A   Clear
1:52 AM 60.1 °F 25.0 °F 26% 29.94 in 10.0 mi Calm Calm - N/A   Clear
2:52 AM 62.1 °F 21.0 °F 21% 29.92 in 10.0 mi Calm Calm - N/A   Clear
3:52 AM 60.1 °F 21.9 °F 23% 29.94 in 10.0 mi ENE 3.5 mph - N/A   Clear
4:52 AM 60.1 °F 21.0 °F 22% 29.94 in 10.0 mi Calm Calm - N/A   Clear
5:52 AM 60.1 °F 18.0 °F 20% 29.96 in 10.0 mi NE 5.8 mph - N/A   Clear
6:52 AM 59.0 °F 19.0 °F 21% 29.98 in 10.0 mi ENE 6.9 mph - N/A   Clear
7:52 AM 62.1 °F 24.1 °F 23% 29.99 in 10.0 mi NE 4.6 mph - N/A   Clear
8:52 AM 66.0 °F 26.1 °F 22% 29.99 in 10.0 mi NE 5.8 mph - N/A   Clear
9:52 AM 69.1 °F 21.9 °F 17% 30.00 in 10.0 mi Variable 4.6 mph - N/A   Clear
10:52 AM 70.0 °F 24.1 °F 18% 30.00 in 10.0 mi Variable 5.8 mph - N/A   Clear
11:52 AM 71.1 °F 21.9 °F 16% 29.99 in 10.0 mi West 6.9 mph - N/A   Clear
12:52 PM 72.0 °F 26.1 °F 18% 29.99 in 10.0 mi Variable 6.9 mph - N/A   Clear
1:52 PM 73.0 °F 34.0 °F 24% 29.97 in 10.0 mi Variable 4.6 mph - N/A   Clear
2:52 PM 72.0 °F 34.0 °F 25% 29.97 in 10.0 mi SW 8.1 mph 16.1 mph N/A   Clear
3:52 PM 72.0 °F 30.9 °F 22% 29.97 in 10.0 mi Variable 6.9 mph - N/A   Clear
4:52 PM 73.0 °F 32.0 °F 22% 29.96 in 10.0 mi West 9.2 mph - N/A   Clear
5:52 PM 71.1 °F 36.0 °F 28% 29.98 in 10.0 mi Variable 5.8 mph - N/A   Clear
6:52 PM 70.0 °F 37.0 °F 30% 29.99 in 10.0 mi Variable 4.6 mph - N/A   Clear
7:52 PM 66.9 °F 37.9 °F 34% 29.99 in 10.0 mi NNW 3.5 mph - N/A   Clear
8:52 PM 64.9 °F 37.0 °F 36% 29.99 in 10.0 mi NNE 4.6 mph - N/A   Clear
9:52 PM 66.0 °F 37.0 °F 34% 29.97 in 10.0 mi NE 5.8 mph - N/A   Clear
10:52 PM 64.9 °F 37.0 °F 36% 29.97 in 10.0 mi NE 5.8 mph - N/A   Clear
11:52 PM 64.9 °F 33.1 °F 31% 29.97 in 10.0 mi ENE 4.6 mph - N/A   Clear